TimeCST,TemperatureF,Dew PointF,Humidity,Sea Level PressureIn,VisibilityMPH,Wind Direction,Wind SpeedMPH,Gust SpeedMPH,PrecipitationIn,Events,Conditions,WindDirDegrees,DateUTC
6:00 AM,69,65,84,29.85,12,Calm,Calm,,,,Scattered Clouds,,2012-04-12 12:00:00
6:00 AM,69.8,66.2,88,29.88,-9999.0,Calm,Calm,-,N/A,,Clear,0,2012-04-12 12:00:00
7:00 AM,75.2,66.2,73,29.90,-9999.0,NNE,2.3,-,N/A,,Clear,20,2012-04-12 13:00:00
8:00 AM,80.6,66.2,61,29.93,-9999.0,SSE,2.3,-,N/A,,Clear,160,2012-04-12 14:00:00
9:00 AM,84,62,38,29.91,12,North,2.3,,,,,350,2012-04-12 15:00:00
9:00 AM,84.2,62.6,48,29.94,-9999.0,North,2.3,-,N/A,,Clear,350,2012-04-12 15:00:00
10:00 AM,89.6,60.8,38,29.93,-9999.0,SE,3.5,-,N/A,,Clear,130,2012-04-12 16:00:00
11:00 AM,93.2,57.2,30,29.91,-9999.0,NE,5.8,-,N/A,,Clear,50,2012-04-12 17:00:00
12:00 PM,94,57,20,29.88,12,NE,8.1,,,,Scattered Clouds,40,2012-04-12 18:00:00
12:00 PM,93.2,57.2,30,29.89,6.2,NE,8.1,-,N/A,,Partly Cloudy,40,2012-04-12 18:00:00
1:00 PM,96.8,59.0,28,29.84,6.2,East,8.1,-,N/A,,Partly Cloudy,90,2012-04-12 19:00:00
2:00 PM,93.2,57.2,30,29.82,6.2,NE,8.1,-,N/A,,Partly Cloudy,40,2012-04-12 20:00:00
3:00 PM,94,63,26,29.79,12,NW,5.8,,,,Partly Cloudy,320,2012-04-12 21:00:00
3:00 PM,93.2,62.6,36,29.80,6.2,NW,5.8,-,N/A,,Scattered Clouds,320,2012-04-12 21:00:00
4:00 PM,89.6,64.4,43,29.80,6.2,WSW,10.4,-,N/A,,Scattered Clouds,240,2012-04-12 22:00:00
5:00 PM,89.6,66.2,46,29.81,6.2,West,8.1,-,N/A,,Mostly Cloudy,260,2012-04-12 23:00:00
6:00 PM,86,64,37,29.79,12,SW,8.1,,,,Partly Cloudy,220,2012-04-13 00:00:00
6:00 PM,86.0,64.4,48,29.83,6.2,SW,8.1,-,N/A,,Scattered Clouds,220,2012-04-13 00:00:00
7:00 PM,84.2,64.4,51,29.86,6.2,SSW,3.5,-,N/A,,Partly Cloudy,200,2012-04-13 01:00:00
8:00 PM,84.2,64.4,51,29.88,6.2,SSE,4.6,-,N/A,,Partly Cloudy,150,2012-04-13 02:00:00